Location: Gro�sch�nbrunn
(49.5760°N, 11.8868°E)
Time: 02:12:33
(UTC+00:00)

YAOGAN 1 - Pass Details

Date: 18 September 2020
Orbit: 618 x 620 km, 97.9° (Epoch: 30 October)

Event Time Altitude Azimuth Distance (km) Brightness Sun altitude
Rises 18:22:13 0° 186° (S) 2,886 5.9 -11.0°
Reaches altitude 10° 18:24:31 10° 195° (SSW) 1,985 5.2 -11.4°
Maximum altitude 18:28:31 37° 263° (W) 978 4.2 -12.0°
Drops below altitude 10° 18:32:34 10° 331° (NNW) 2,000 5.9 -12.6°
Sets 18:34:55 0° 340° (NNW) 2,912 6.6 -13.0°
